Time,TemperatureF,DewpointF,PressureIn,WindDirection,WindDirectionDegrees,WindSpeedMPH,WindSpeedGustMPH,Humidity,HourlyPrecipIn,Conditions,Clouds,dailyrainin,SoftwareType,DateUTC
2013-04-30 00:01:00,61.0,32.0,-100.00,WSW,254,11.0,15.0,34,-99.99,,,-99.99,,2013-04-30 07:01:00,
2013-04-30 00:11:00,61.0,30.0,-100.00,WSW,257,11.0,15.0,31,-99.99,,,-99.99,,2013-04-30 07:11:00,
2013-04-30 00:21:00,61.0,28.0,-100.00,WSW,258,12.0,15.0,28,-99.99,,,-99.99,,2013-04-30 07:21:00,
2013-04-30 00:31:00,61.0,28.0,-100.00,WSW,258,12.0,15.0,28,-99.99,,,-99.99,,2013-04-30 07:31:00,
2013-04-30 00:41:00,61.0,26.0,-100.00,WSW,256,12.0,15.0,26,-99.99,,,-99.99,,2013-04-30 07:41:00,
2013-04-30 00:52:00,61.0,27.0,-100.00,WSW,258,11.0,14.0,27,-99.99,,,-99.99,,2013-04-30 07:52:00,
2013-04-30 01:02:00,60.0,27.0,-100.00,West,260,10.0,13.0,28,-99.99,,,-99.99,,2013-04-30 08:02:00,
2013-04-30 01:11:00,60.0,27.0,-100.00,West,261,10.0,13.0,28,-99.99,,,-99.99,,2013-04-30 08:11:00,
2013-04-30 01:21:00,60.0,28.0,-100.00,West,259,10.0,13.0,29,-99.99,,,-99.99,,2013-04-30 08:21:00,
2013-04-30 01:32:00,60.0,28.0,-100.00,WSW,254,9.0,12.0,30,-99.99,,,-99.99,,2013-04-30 08:32:00,
2013-04-30 01:41:00,60.0,28.0,-100.00,WSW,258,9.0,13.0,30,-99.99,,,-99.99,,2013-04-30 08:41:00,
2013-04-30 01:50:00,60.0,28.0,-100.00,West,265,10.0,14.0,29,-99.99,,,-99.99,,2013-04-30 08:50:00,
2013-04-30 01:52:00,59.0,27.0,-100.00,West,266,10.0,14.0,29,-99.99,,,-99.99,,2013-04-30 08:52:00,
2013-04-30 02:01:00,60.0,29.0,-100.00,West,270,12.0,16.0,31,-99.99,,,-99.99,,2013-04-30 09:01:00,
2013-04-30 02:21:00,60.0,28.0,-100.00,West,265,10.0,14.0,29,-99.99,,,-99.99,,2013-04-30 09:21:00,
2013-04-30 02:43:00,60.0,28.0,-100.00,West,265,10.0,14.0,29,-99.99,,,-99.99,,2013-04-30 09:43:00,
2013-04-30 02:50:00,58.0,28.0,-100.00,West,261,6.0,9.0,32,-99.99,,,-99.99,,2013-04-30 09:50:00,
2013-04-30 03:03:00,59.0,27.0,-100.00,West,263,10.0,13.0,29,-99.99,,,-99.99,,2013-04-30 10:03:00,
2013-04-30 03:11:00,59.0,27.0,-100.00,West,263,10.0,13.0,29,-99.99,,,-99.99,,2013-04-30 10:11:00,
2013-04-30 03:22:00,58.0,28.0,-100.00,West,261,6.0,9.0,32,-99.99,,,-99.99,,2013-04-30 10:22:00,
2013-04-30 03:32:00,58.0,28.0,-100.00,West,261,6.0,9.0,32,-99.99,,,-99.99,,2013-04-30 10:32:00,
2013-04-30 04:01:00,57.0,22.0,-100.00,West,277,10.0,12.0,26,-99.99,,,-99.99,,2013-04-30 11:01:00,
2013-04-30 04:11:00,57.0,22.0,-100.00,West,277,10.0,12.0,26,-99.99,,,-99.99,,2013-04-30 11:11:00,
2013-04-30 04:50:00,58.0,18.0,-100.00,West,272,12.0,16.0,21,-99.99,,,-99.99,,2013-04-30 11:50:00,
2013-04-30 05:21:00,58.0,18.0,-100.00,West,272,12.0,16.0,21,-99.99,,,-99.99,,2013-04-30 12:21:00,
2013-04-30 05:31:00,58.0,18.0,-100.00,West,272,12.0,16.0,21,-99.99,,,-99.99,,2013-04-30 12:31:00,
2013-04-30 06:41:00,59.0,16.0,-100.00,West,265,11.0,14.0,18,-99.99,,,-99.99,,2013-04-30 13:41:00,
2013-04-30 07:50:00,64.0,12.0,-100.00,West,260,9.0,14.0,13,-99.99,,,-99.99,,2013-04-30 14:50:00,
2013-04-30 08:21:00,64.0,12.0,-100.00,West,260,9.0,14.0,13,-99.99,,,-99.99,,2013-04-30 15:21:00,
2013-04-30 08:32:00,64.0,12.0,-100.00,West,260,9.0,14.0,13,-99.99,,,-99.99,,2013-04-30 15:32:00,
2013-04-30 08:42:00,64.0,12.0,-100.00,West,260,9.0,14.0,13,-99.99,,,-99.99,,2013-04-30 15:42:00,
2013-04-30 09:02:00,67.0,15.0,-100.00,WSW,246,9.0,16.0,13,-99.99,,,-99.99,,2013-04-30 16:02:00,
2013-04-30 09:12:00,67.0,15.0,-100.00,WSW,250,9.0,15.0,13,-99.99,,,-99.99,,2013-04-30 16:12:00,
2013-04-30 09:22:00,67.0,16.0,-100.00,WSW,241,12.0,17.0,14,-99.99,,,-99.99,,2013-04-30 16:22:00,
2013-04-30 09:32:00,67.0,16.0,-100.00,WSW,241,12.0,17.0,14,-99.99,,,-99.99,,2013-04-30 16:32:00,
2013-04-30 09:42:00,67.0,16.0,-100.00,WSW,241,12.0,17.0,14,-99.99,,,-99.99,,2013-04-30 16:42:00,
2013-04-30 09:52:00,69.0,18.0,-100.00,WSW,241,10.0,18.0,14,-99.99,,,-99.99,,2013-04-30 16:52:00,
2013-04-30 10:02:00,70.0,17.0,-100.00,SW,230,13.0,19.0,13,-99.99,,,-99.99,,2013-04-30 17:02:00,
2013-04-30 10:12:00,70.0,19.0,-100.00,SW,233,12.0,19.0,14,-99.99,,,-99.99,,2013-04-30 17:12:00,
2013-04-30 10:22:00,70.0,19.0,-100.00,SW,235,13.0,21.0,14,-99.99,,,-99.99,,2013-04-30 17:22:00,
2013-04-30 10:32:00,70.0,19.0,-100.00,SW,235,13.0,21.0,14,-99.99,,,-99.99,,2013-04-30 17:32:00,
2013-04-30 10:42:00,70.0,19.0,-100.00,SW,235,13.0,21.0,14,-99.99,,,-99.99,,2013-04-30 17:42:00,
2013-04-30 10:52:00,71.0,21.0,-100.00,WSW,247,14.0,23.0,15,-99.99,,,-99.99,,2013-04-30 17:52:00,
2013-04-30 11:01:00,72.0,22.0,-100.00,WSW,255,12.0,18.0,15,-99.99,,,-99.99,,2013-04-30 18:01:00,
2013-04-30 11:11:00,72.0,22.0,-100.00,WSW,253,12.0,20.0,15,-99.99,,,-99.99,,2013-04-30 18:11:00,
2013-04-30 11:22:00,72.0,22.0,-100.00,SW,235,13.0,18.0,15,-99.99,,,-99.99,,2013-04-30 18:22:00,
2013-04-30 11:32:00,72.0,23.0,-100.00,WSW,244,14.0,22.0,16,-99.99,,,-99.99,,2013-04-30 18:32:00,
2013-04-30 11:41:00,72.0,25.0,-100.00,WSW,242,14.0,23.0,17,-99.99,,,-99.99,,2013-04-30 18:41:00,
2013-04-30 11:51:00,72.0,25.0,-100.00,WSW,242,15.0,23.0,17,-99.99,,,-99.99,,2013-04-30 18:51:00,
2013-04-30 12:01:00,72.0,23.0,-100.00,SW,236,15.0,24.0,16,-99.99,,,-99.99,,2013-04-30 19:01:00,
2013-04-30 12:11:00,73.0,27.0,-100.00,WSW,241,12.0,21.0,18,-99.99,,,-99.99,,2013-04-30 19:11:00,
2013-04-30 12:21:00,73.0,30.0,-100.00,WSW,251,13.0,24.0,20,-99.99,,,-99.99,,2013-04-30 19:21:00,
2013-04-30 12:31:00,72.0,29.0,-100.00,WSW,242,14.0,20.0,20,-99.99,,,-99.99,,2013-04-30 19:31:00,
2013-04-30 12:41:00,72.0,30.0,-100.00,WSW,242,13.0,20.0,21,-99.99,,,-99.99,,2013-04-30 19:41:00,
2013-04-30 12:52:00,73.0,32.0,-100.00,WSW,243,14.0,22.0,22,-99.99,,,-99.99,,2013-04-30 19:52:00,
2013-04-30 13:01:00,73.0,32.0,-100.00,WSW,243,14.0,22.0,22,-99.99,,,-99.99,,2013-04-30 20:01:00,
2013-04-30 13:11:00,72.0,33.0,-100.00,WSW,254,14.0,23.0,24,-99.99,,,-99.99,,2013-04-30 20:11:00,
2013-04-30 13:21:00,72.0,35.0,-100.00,West,268,15.0,22.0,26,-99.99,,,-99.99,,2013-04-30 20:21:00,
2013-04-30 13:32:00,72.0,34.0,-100.00,West,268,16.0,24.0,25,-99.99,,,-99.99,,2013-04-30 20:32:00,
2013-04-30 13:42:00,72.0,37.0,-100.00,West,259,15.0,22.0,28,-99.99,,,-99.99,,2013-04-30 20:42:00,
2013-04-30 13:52:00,72.0,36.0,-100.00,West,262,13.0,20.0,27,-99.99,,,-99.99,,2013-04-30 20:52:00,
2013-04-30 14:01:00,72.0,36.0,-100.00,West,262,13.0,20.0,27,-99.99,,,-99.99,,2013-04-30 21:01:00,
2013-04-30 14:11:00,72.0,38.0,-100.00,WSW,253,15.0,25.0,29,-99.99,,,-99.99,,2013-04-30 21:11:00,
2013-04-30 14:22:00,72.0,39.0,-100.00,WSW,255,15.0,22.0,30,-99.99,,,-99.99,,2013-04-30 21:22:00,
2013-04-30 14:32:00,73.0,40.0,-100.00,WSW,245,14.0,23.0,30,-99.99,,,-99.99,,2013-04-30 21:32:00,
2013-04-30 14:42:00,73.0,40.0,-100.00,WSW,245,14.0,23.0,30,-99.99,,,-99.99,,2013-04-30 21:42:00,
2013-04-30 14:52:00,73.0,40.0,-100.00,WSW,242,17.0,25.0,30,-99.99,,,-99.99,,2013-04-30 21:52:00,
2013-04-30 15:02:00,74.0,40.0,-100.00,WSW,249,15.0,21.0,29,-99.99,,,-99.99,,2013-04-30 22:02:00,
2013-04-30 15:12:00,73.0,40.0,-100.00,West,260,15.0,24.0,30,-99.99,,,-99.99,,2013-04-30 22:12:00,
2013-04-30 15:22:00,72.0,41.0,-100.00,West,262,16.0,25.0,33,-99.99,,,-99.99,,2013-04-30 22:22:00,
2013-04-30 15:32:00,72.0,41.0,-100.00,WSW,257,15.0,22.0,33,-99.99,,,-99.99,,2013-04-30 22:32:00,
2013-04-30 15:41:00,73.0,41.0,-100.00,WSW,257,15.0,23.0,32,-99.99,,,-99.99,,2013-04-30 22:41:00,
2013-04-30 15:52:00,72.0,42.0,-100.00,WSW,248,17.0,30.0,34,-99.99,,,-99.99,,2013-04-30 22:52:00,
2013-04-30 16:02:00,72.0,41.0,-100.00,WSW,251,18.0,26.0,32,-99.99,,,-99.99,,2013-04-30 23:02:00,
2013-04-30 16:11:00,72.0,41.0,-100.00,WSW,252,17.0,26.0,33,-99.99,,,-99.99,,2013-04-30 23:11:00,
2013-04-30 16:21:00,71.0,41.0,-100.00,West,260,17.0,26.0,34,-99.99,,,-99.99,,2013-04-30 23:21:00,
2013-04-30 16:32:00,70.0,43.0,-100.00,WSW,257,16.0,24.0,37,-99.99,,,-99.99,,2013-04-30 23:32:00,
2013-04-30 16:42:00,70.0,42.0,-100.00,WSW,247,17.0,25.0,36,-99.99,,,-99.99,,2013-04-30 23:42:00,
2013-04-30 16:52:00,70.0,43.0,-100.00,WSW,255,15.0,22.0,37,-99.99,,,-99.99,,2013-04-30 23:52:00,
2013-04-30 17:01:00,70.0,43.0,-100.00,WSW,255,15.0,22.0,37,-99.99,,,-99.99,,2013-05-01 00:01:00,
2013-04-30 17:11:00,69.0,44.0,-100.00,WSW,251,17.0,23.0,40,-99.99,,,-99.99,,2013-05-01 00:11:00,
2013-04-30 17:21:00,68.0,43.0,-100.00,WSW,246,19.0,28.0,41,-99.99,,,-99.99,,2013-05-01 00:21:00,
2013-04-30 17:32:00,68.0,45.0,-100.00,WSW,254,17.0,24.0,43,-99.99,,,-99.99,,2013-05-01 00:32:00,
2013-04-30 17:42:00,68.0,45.0,-100.00,WSW,254,17.0,24.0,43,-99.99,,,-99.99,,2013-05-01 00:42:00,
2013-04-30 17:51:00,67.0,44.0,-100.00,West,260,14.0,20.0,44,-99.99,,,-99.99,,2013-05-01 00:51:00,
2013-04-30 18:01:00,67.0,44.0,-100.00,West,260,14.0,20.0,44,-99.99,,,-99.99,,2013-05-01 01:01:00,
2013-04-30 18:11:00,67.0,45.0,-100.00,WSW,256,14.0,20.0,45,-99.99,,,-99.99,,2013-05-01 01:11:00,
2013-04-30 18:21:00,66.0,45.0,-100.00,WSW,247,12.0,18.0,46,-99.99,,,-99.99,,2013-05-01 01:21:00,
2013-04-30 18:31:00,66.0,45.0,-100.00,WSW,249,12.0,19.0,47,-99.99,,,-99.99,,2013-05-01 01:31:00,
2013-04-30 18:41:00,65.0,45.0,-100.00,WSW,245,12.0,17.0,48,-99.99,,,-99.99,,2013-05-01 01:41:00,
2013-04-30 18:52:00,65.0,46.0,-100.00,WSW,250,11.0,14.0,51,-99.99,,,-99.99,,2013-05-01 01:52:00,
2013-04-30 19:01:00,65.0,47.0,-100.00,WSW,245,11.0,16.0,52,-99.99,,,-99.99,,2013-05-01 02:01:00,
2013-04-30 19:11:00,65.0,47.0,-100.00,SW,234,10.0,15.0,52,-99.99,,,-99.99,,2013-05-01 02:11:00,
2013-04-30 19:21:00,64.0,47.0,-100.00,WSW,249,9.0,14.0,55,-99.99,,,-99.99,,2013-05-01 02:21:00,
2013-04-30 19:32:00,62.0,47.0,-100.00,WSW,251,8.0,14.0,58,-99.99,,,-99.99,,2013-05-01 02:32:00,
2013-04-30 19:42:00,61.0,47.0,-100.00,WSW,256,7.0,11.0,61,-99.99,,,-99.99,,2013-05-01 02:42:00,
2013-04-30 19:51:00,60.0,48.0,-100.00,West,261,7.0,12.0,64,-99.99,,,-99.99,,2013-05-01 02:51:00,
2013-04-30 20:01:00,59.0,48.0,-100.00,West,261,6.0,10.0,67,-99.99,,,-99.99,,2013-05-01 03:01:00,
2013-04-30 20:11:00,58.0,47.0,-100.00,West,263,7.0,11.0,68,-99.99,,,-99.99,,2013-05-01 03:11:00,
2013-04-30 20:21:00,57.0,47.0,-100.00,WSW,257,8.0,12.0,70,-99.99,,,-99.99,,2013-05-01 03:21:00,
2013-04-30 20:32:00,57.0,48.0,-100.00,WSW,258,10.0,14.0,71,-99.99,,,-99.99,,2013-05-01 03:32:00,
2013-04-30 20:42:00,56.0,47.0,-100.00,West,259,10.0,15.0,72,-99.99,,,-99.99,,2013-05-01 03:42:00,
2013-04-30 20:52:00,56.0,47.0,-100.00,West,259,11.0,18.0,73,-99.99,,,-99.99,,2013-05-01 03:52:00,
2013-04-30 21:03:00,55.0,47.0,-100.00,WSW,258,12.0,16.0,74,-99.99,,,-99.99,,2013-05-01 04:03:00,
2013-04-30 21:12:00,55.0,48.0,-100.00,West,261,12.0,17.0,76,-99.99,,,-99.99,,2013-05-01 04:12:00,
2013-04-30 21:22:00,54.0,47.0,-100.00,West,260,10.0,13.0,77,-99.99,,,-99.99,,2013-05-01 04:22:00,
2013-04-30 21:32:00,53.0,47.0,-100.00,West,264,11.0,16.0,79,-99.99,,,-99.99,,2013-05-01 04:32:00,
2013-04-30 21:42:00,53.0,47.0,-100.00,West,260,12.0,16.0,81,-99.99,,,-99.99,,2013-05-01 04:42:00,
2013-04-30 21:52:00,53.0,48.0,-100.00,West,259,13.0,18.0,82,-99.99,,,-99.99,,2013-05-01 04:52:00,
2013-04-30 22:02:00,53.0,48.0,-100.00,West,261,13.0,16.0,83,-99.99,,,-99.99,,2013-05-01 05:02:00,
2013-04-30 22:11:00,52.0,47.0,-100.00,WSW,258,12.0,16.0,84,-99.99,,,-99.99,,2013-05-01 05:11:00,
2013-04-30 22:21:00,52.0,48.0,-100.00,WSW,258,12.0,18.0,85,-99.99,,,-99.99,,2013-05-01 05:21:00,
2013-04-30 22:32:00,51.0,47.0,-100.00,WSW,257,13.0,17.0,87,-99.99,,,-99.99,,2013-05-01 05:32:00,
2013-04-30 22:41:00,51.0,48.0,-100.00,WSW,253,14.0,19.0,89,-99.99,,,-99.99,,2013-05-01 05:41:00,
2013-04-30 22:52:00,50.0,47.0,-100.00,WSW,255,14.0,20.0,91,-99.99,,,-99.99,,2013-05-01 05:52:00,
2013-04-30 23:01:00,50.0,48.0,-100.00,West,259,13.0,20.0,92,-99.99,,,-99.99,,2013-05-01 06:01:00,
2013-04-30 23:11:00,50.0,48.0,-100.00,West,259,13.0,20.0,92,-99.99,,,-99.99,,2013-05-01 06:11:00,
2013-04-30 23:22:00,49.0,47.0,-100.00,WSW,255,6.0,14.0,93,-99.99,,,-99.99,,2013-05-01 06:22:00,
2013-04-30 23:32:00,49.0,47.0,-100.00,SSW,204,5.0,9.0,93,-99.99,,,-99.99,,2013-05-01 06:32:00,
2013-04-30 23:42:00,48.0,46.0,-100.00,ESE,107,4.0,7.0,93,-99.99,,,-99.99,,2013-05-01 06:42:00,
2013-04-30 23:51:00,48.0,46.0,-100.00,ENE,63,2.0,5.0,94,-99.99,,,-99.99,,2013-05-01 06:51:00,